FW9766 Weather Reports


time (UTC)temp
C
wind
direction
speed
KPH
gust
KPH
rain 1hr
cm
rain 24hr
cm
rain mn
cm
humidity
%
barometer
mb
20260506134547 21 0 0.0 1.6 0.00 0.00 0.00 97 1011.6
20260506133101 21 67 0.0 6.4 0.00 0.00 0.00 97 1010.7
20260506131547 21 61 1.6 8.0 0.00 0.00 0.00 97 1010.4
20260506130056 21 65 0.0 8.0 0.00 0.00 0.00 97 1010.3
20260506124548 21 57 3.2 9.7 0.00 0.00 0.00 97 1010.2
20260506123043 21 72 3.2 11.3 0.00 0.00 0.00 97 1010.0
20260506121541 21 139 4.8 16.1 0.00 0.00 0.00 97 1010.0
20260506120048 21 36 1.6 6.4 0.00 0.00 0.00 97 1009.9
20260506114550 21 53 1.6 8.0 0.00 0.00 0.00 97 1009.9
20260506113045 21 0 3.2 12.9 0.00 0.00 0.00 97 1010.0
20260506111544 21 65 1.6 9.7 0.00 0.00 0.00 97 1010.2
20260506110045 21 90 0.0 12.9 0.00 0.00 0.00 97 1010.3
20260506104606 21 68 1.6 14.5 0.00 0.00 0.00 97 1010.0
20260506103047 21 91 6.4 17.7 0.00 0.00 0.00 97 1010.1
20260506101549 21 47 4.8 14.5 0.00 0.00 0.00 97 1010.2
20260506100046 22 82 3.2 17.7 0.00 0.00 0.00 96 1010.0
20260506094544 22 98 3.2 12.9 0.00 0.00 0.00 96 1010.0
20260506093041 22 68 3.2 12.9 0.00 0.00 0.00 96 1010.0
20260506091541 22 85 4.8 14.5 0.00 0.00 0.00 96 1009.9
20260506090049 22 87 4.8 20.9 0.00 0.00 0.00 96 1009.8
20260506084547 22 99 6.4 17.7 0.00 0.00 0.00 95 1009.6
20260506083048 22 31 4.8 17.7 0.00 0.00 0.00 95 1009.5
20260506081545 22 60 4.8 16.1 0.00 0.00 0.00 95 1009.5
20260506073050 22 79 9.7 20.9 0.00 0.00 0.00 93 1009.7
20260506071547 22 97 9.7 25.7 0.00 0.00 0.00 93 1009.9
20260506061547 23 119 4.8 16.1 0.00 0.00 0.00 93 1010.3
20260506044603 21 0 0.0 0.0 0.00 0.00 0.00 91 1010.3
20260506043055 21 0 0.0 0.0 0.00 0.00 0.00 90 1010.2
20260506041548 22 0 0.0 0.0 0.00 0.00 0.00 89 1010.1
20260506040051 22 0 0.0 0.0 0.00 0.00 0.00 89 1009.9
20260506034544 22 0 0.0 0.0 0.00 0.00 0.00 88 1009.7
20260506033048 23 0 0.0 0.0 0.00 0.00 0.00 87 1009.6
20260506031550 23 0 1.6 6.4 0.00 0.00 0.00 87 1009.4
20260506030114 23 0 0.0 3.2 0.00 0.00 0.00 86 1009.2
20260506024548 23 0 0.0 3.2 0.00 0.00 0.00 86 1008.8
20260506023048 23 0 0.0 3.2 0.00 0.00 0.00 85 1008.7
20260506021553 23 0 0.0 11.3 0.00 0.00 0.00 84 1008.6
20260506020048 24 0 0.0 0.0 0.00 0.00 0.00 83 1008.3
20260506014547 25 0 0.0 1.6 0.00 0.00 0.00 81 1008.1
20260506013048 25 0 0.0 3.2 0.00 0.00 0.00 79 1008.0
20260506011550 26 0 0.0 6.4 0.00 0.00 0.00 78 1007.5
20260506010053 26 91 0.0 8.0 0.00 0.00 0.00 76 1007.4
20260506004548 27 25 3.2 12.9 0.00 0.00 0.00 74 1007.4
20260506003048 27 75 4.8 12.9 0.00 0.00 0.00 73 1007.6
20260506001551 28 80 4.8 12.9 0.00 0.00 0.00 72 1007.6
20260506000049 28 89 3.2 12.9 0.00 0.00 0.00 71 1007.6
20260505234606 28 78 6.4 12.9 0.00 0.00 0.00 68 1007.5
20260505233048 28 121 4.8 14.5 0.00 0.00 0.00 69 1007.6
20260505231542 28 90 6.4 16.1 0.00 0.00 0.00 68 1007.5
20260505230049 28 95 4.8 16.1 0.00 0.00 0.00 68 1007.4
20260505224548 28 62 4.8 12.9 0.00 0.00 0.00 70 1007.5
20260505223102 28 103 6.4 16.1 0.00 0.00 0.00 70 1007.6
20260505221545 28 131 3.2 16.1 0.00 0.00 0.00 70 1007.6
20260505220049 28 96 8.0 17.7 0.00 0.00 0.00 68 1007.6
20260505214553 28 132 8.0 16.1 0.00 0.00 0.00 68 1007.8
20260505213048 28 129 11.3 25.7 0.00 0.00 0.00 67 1007.9
20260505211556 28 111 4.8 19.3 0.00 0.00 0.00 69 1007.9
20260505210047 28 114 8.0 22.5 0.00 0.00 0.00 68 1008.1
20260505204546 28 127 9.7 22.5 0.00 0.00 0.00 69 1008.3
20260505203100 28 111 8.0 20.9 0.00 0.00 0.00 71 1008.4
20260505201540 28 99 9.7 17.7 0.00 0.00 0.00 70 1008.5
20260505200048 27 166 12.9 19.3 0.00 0.00 0.00 70 1008.8
20260505194547 27 100 6.4 14.5 0.00 0.00 0.00 72 1009.1
20260505193045 27 137 9.7 19.3 0.00 0.00 0.00 74 1009.1
20260505191551 26 117 8.0 22.5 0.00 0.00 0.00 75 1009.2
20260505190046 26 121 9.7 22.5 0.00 0.00 0.00 75 1009.4
20260505184552 26 131 9.7 20.9 0.00 0.00 0.00 76 1009.6
20260505183048 26 113 4.8 16.1 0.00 0.00 0.00 76 1009.9
20260505181544 25 130 9.7 19.3 0.00 0.00 0.00 78 1010.1
20260505180048 25 87 9.7 17.7 0.00 0.00 0.00 80 1010.2
20260505174543 24 120 8.0 17.7 0.00 0.00 0.00 81 1010.5
20260505173047 23 133 6.4 16.1 0.00 0.00 0.00 84 1010.7
20260505171547 22 163 6.4 16.1 0.00 0.00 0.00 84 1010.7
20260505170047 22 123 8.0 17.7 0.00 0.00 0.00 85 1010.6
20260505164548 22 132 9.7 17.7 0.00 0.00 0.00 87 1010.6
20260505163043 21 95 9.7 20.9 0.00 0.00 0.00 88 1010.6
20260505161543 21 111 4.8 17.7 0.00 0.00 0.00 90 1010.4
20260505153051 20 92 4.8 14.5 0.00 0.00 0.00 93 1010.4
20260505151547 20 109 9.7 17.7 0.00 0.00 0.00 93 1010.4